Date,TemperatureHighF,TemperatureAvgF,TemperatureLowF,DewpointHighF,DewpointAvgF,DewpointLowF,HumidityHigh,HumidityAvg,HumidityLow,PressureMaxIn,PressureMinIn,WindSpeedMaxMPH,WindSpeedAvgMPH,GustSpeedMaxMPH,PrecipitationSumIn
2013-1-1,58,32,16,30,18,11,82,60,28,30.08,29.98,7,1,7,0.00
2013-1-2,64,33,14,23,14,6,74,50,19,30.04,29.92,7,1,7,0.00
2013-1-3,52,32,18,16,9,3,66,42,16,30.10,29.96,20,4,20,0.00
2013-1-4,64,33,14,19,9,1,71,43,13,30.13,30.03,5,1,5,0.00
2013-1-5,68,34,14,20,10,-1,66,42,11,30.16,30.06,6,1,6,0.00
2013-1-6,58,36,22,23,13,9,68,43,17,30.07,29.81,18,3,18,0.00
2013-1-7,67,36,22,26,17,10,72,50,16,29.89,29.77,7,1,7,0.00
2013-1-8,72,41,25,21,16,10,56,39,13,30.06,29.85,3,1,3,0.00
2013-1-9,74,46,24,30,20,12,73,40,16,30.13,29.93,4,1,6,0.00
2013-1-10,53,41,30,28,19,14,67,42,30,29.93,29.63,21,4,21,0.00
2013-1-11,46,28,16,19,10,-9,68,52,11,29.85,29.69,14,6,14,0.00
2013-1-12,48,25,11,18,4,-1,70,44,17,29.88,29.79,9,2,9,0.00
2013-1-13,16,13,11,2,0,-1,58,57,52,29.87,29.87,4,1,4,0.00
2013-1-15,56,37,24,9,4,-1,47,27,14,30.19,30.07,0,0,0,0.00
2013-1-16,71,30,16,25,10,3,64,47,17,30.21,30.10,0,0,0,0.00
2013-1-17,73,38,19,24,15,9,69,44,16,30.20,30.09,0,0,0,0.00
2013-1-18,73,38,19,26,16,9,69,45,16,30.18,30.05,0,0,0,0.00
2013-1-19,79,37,20,27,16,9,71,47,12,30.19,30.08,0,0,0,0.00
2013-1-20,76,39,18,24,11,2,68,40,10,30.14,30.00,0,0,0,0.00
2013-1-21,78,40,20,22,9,-1,60,33,7,30.11,30.01,0,0,0,0.00
2013-1-22,80,42,20,20,11,2,55,34,10,30.15,30.06,0,0,0,0.00
2013-1-23,76,44,25,24,17,10,58,37,15,30.17,30.08,0,0,0,0.00
2013-1-24,53,46,41,44,34,21,87,64,40,30.15,30.07,0,0,0,0.11
2013-1-25,66,50,41,52,44,38,92,83,60,30.12,29.96,0,0,0,0.29
2013-1-26,51,49,46,48,46,44,92,90,85,29.97,29.78,0,0,0,1.05
2013-1-27,54,47,42,46,42,35,92,82,66,29.89,29.78,0,0,0,0.16
2013-1-28,42,35,22,37,29,18,90,79,57,29.85,29.73,0,0,0,0.10
2013-1-29,48,32,18,33,22,14,85,68,39,30.04,29.84,0,0,0,0.08
2013-1-30,70,39,25,38,26,20,83,62,30,30.16,30.04,0,0,0,0.00
2013-1-31,73,44,27,40,29,23,85,59,24,30.12,30.03,0,0,0,0.00